This is the latest recevied weather packets stored in our database for station/object BRIVER. If no packets are shown the sender has not sent any weather packets the latest 1 day(s).
| Time | Temp. | Humidity | Pressure | Rain* | Wind** | Luminosity | Snow |
|---|---|---|---|---|---|---|---|
| 1778050228 | 9.44° C | 95% | 1015.7 hPa | 0 mm | 0 m/s | - | - |
| 1778049928 | 10° C | 95% | 1015.7 hPa | 0 mm | 0 m/s | - | - |
| 1778049809 | 10° C | 95% | 1015.7 hPa | 0 mm | 0 m/s | - | - |
| 1778049628 | 10° C | 95% | 1015.7 hPa | 0 mm | 0 m/s | - | - |
| 1778049328 | 10° C | 94% | 1015.7 hPa | 0 mm | 0.45 m/s, 196° | - | - |
| 1778049028 | 10° C | 95% | 1015.7 hPa | 0 mm | 0.45 m/s, 196° | - | - |
| 1778048728 | 10° C | 95% | 1015.6 hPa | 0 mm | 0 m/s | - | - |
| 1778048428 | 10° C | 94% | 1015.6 hPa | 0 mm | 0 m/s | - | - |
| 1778048189 | 10° C | 94% | 1015.6 hPa | 0 mm | 0 m/s | - | - |
| 1778048128 | 10° C | 95% | 1015.6 hPa | 0 mm | 0.45 m/s, 192° | - | - |
| 1778047828 | 10° C | 94% | 1015.6 hPa | 0 mm | 0.45 m/s, 192° | - | - |
| 1778047649 | 10° C | 94% | 1015.5 hPa | 0 mm | 0.89 m/s, 192° | - | - |
| 1778047528 | 10° C | 94% | 1015.5 hPa | 0 mm | 1.34 m/s, 192° | - | - |
| 1778047228 | 10° C | 94% | 1015.4 hPa | 0 mm | 1.79 m/s, 192° | - | - |
| 1778047111 | 10° C | 94% | 1015.5 hPa | 0 mm | 1.79 m/s, 202° | - | - |
| 1778046928 | 10.56° C | 94% | 1015.5 hPa | 0 mm | 1.34 m/s, 207° | - | - |
| 1778046628 | 10.56° C | 94% | 1015.4 hPa | 0 mm | 1.34 m/s, 240° | - | - |
| 1778046570 | 10.56° C | 94% | 1015.4 hPa | 0 mm | 1.34 m/s, 240° | - | - |
| 1778046329 | 10.56° C | 93% | 1015.3 hPa | 0 mm | 2.24 m/s, 240° | - | - |
| 1778046029 | 10.56° C | 93% | 1015.5 hPa | 0 mm | 2.68 m/s, 240° | - | - |
| 1778045729 | 10.56° C | 94% | 1015.3 hPa | 0 mm | 2.68 m/s, 229° | - | - |
| 1778045489 | 10.56° C | 94% | 1015.4 hPa | 0 mm | 2.68 m/s, 227° | - | - |
| 1778045429 | 10.56° C | 93% | 1015.2 hPa | 0 mm | 2.68 m/s, 227° | - | - |
| 1778045128 | 10.56° C | 93% | 1015.2 hPa | 0 mm | 2.68 m/s, 235° | - | - |
| 1778044950 | 10.56° C | 93% | 1015.4 hPa | 0 mm | 2.68 m/s, 250° | - | - |
* Rain latest hour (hover to see other rain measurements)
** Current wind speed in m/s (hover to see current wind gust speed)